Weather History for KTBN - September, 2013

Change the Weather History Date:

Sunday, September 22, 2013

  Actual Average Record
Temperature  
Mean Temperature 58 °F -  
Max Temperature 74 °F 75 °F 89 °F (2000)
Min Temperature 43 °F 55 °F 41 °F (1999)
Degree Days  
Heating Degree Days 6    
Growing Degree Days 8 (Base 50)    
Moisture  
Dew Point 51 °F    
Average Humidity 77    
Maximum Humidity 100    
Minimum Humidity 45    
Precipitation  
Precipitation 0.00 in - - ()
Sea Level Pressure  
Sea Level Pressure 29.97 in    
Wind  
Wind Speed 3 mph (SE)    
Max Wind Speed 6 mph    
Max Gust Speed -    
Visibility 8 miles    
Events      
Averages and records for this station are not official NWS values.
T = Trace of Precipitation, MM = Missing Value Source: NWS Daily Summary

Daily Weather History Graph

Daily Weather History Graph

Search for Another Location

Airport or City:

Trip Planner

Search our weather history database for the weather conditions in past years. The results will help you decide how hot, cold, wet, or windy it might be!

Date:

Astronomy

Sep. 22, 2013 Rise Set
Actual Time 6:56 AM CDT 7:05 PM CDT
Civil Twilight 6:30 AM CDT 7:31 PM CDT
Nautical Twilight 5:59 AM CDT 8:01 PM CDT
Astronomical Twilight 5:28 AM CDT 8:32 PM CDT
Moon 9:00 PM CDT (9/22) 10:12 AM CDT (9/22)
Length of Visible Light 13h 00m
Length of Day
12h 08m
Waning Gibbous, 88% of the Moon is Illuminated
Sep 22
Waning Gibbous
Sep 26
Last Quarter
Oct 4
New
Oct 11
First Quarter
Oct 18
Full

Hourly Weather History & Observations

Time (CDT) Temp. Dew Point Humidity Pressure Visibility Wind Dir Wind Speed Gust Speed Precip Events Conditions
12:58 AM 48.0 °F 48.0 °F 100% 29.96 in 10.0 mi SW 1.2 mph - N/A   Clear
1:58 AM 47.3 °F 47.3 °F 100% 29.96 in 10.0 mi SW 2.3 mph - N/A   Clear
2:58 AM 46.6 °F 46.6 °F 100% 29.97 in 10.0 mi WSW 1.2 mph - N/A   Clear
3:58 AM 46.8 °F 46.8 °F 100% 29.97 in 6.0 mi South 2.3 mph - N/A   Clear
4:58 AM 46.2 °F 46.2 °F 100% 29.97 in 4.0 mi SSE 2.3 mph - N/A   Clear
5:23 AM 46.4 °F 46.4 °F 100% 29.97 in 2.5 mi SSE 2.3 mph - N/A   Clear
5:28 AM 46.4 °F 46.4 °F 100% 29.98 in 3.0 mi SSE 2.3 mph - N/A   Clear
5:58 AM 44.4 °F 44.4 °F 100% 29.99 in 10.0 mi Calm Calm - N/A   Clear
6:58 AM 43.5 °F 43.5 °F 100% 30.00 in 10.0 mi Calm Calm - N/A   Clear
7:58 AM 49.5 °F 49.5 °F 100% 30.02 in 5.0 mi SSW 2.3 mph - N/A   Clear
8:58 AM 56.7 °F 52.5 °F 86% 30.03 in 5.0 mi SE 2.3 mph - N/A   Haze
9:58 AM 62.6 °F 50.7 °F 65% 30.04 in 10.0 mi ESE 5.8 mph - N/A   Clear
10:58 AM 66.4 °F 49.8 °F 55% 30.03 in 10.0 mi ESE 5.8 mph - N/A   Clear
11:58 AM 68.2 °F 52.7 °F 58% 30.02 in 9.0 mi ENE 4.6 mph - N/A   Clear
12:58 PM 70.2 °F 52.3 °F 53% 30.00 in 4.0 mi Variable 3.5 mph - N/A   Haze
1:18 PM 69.8 °F 51.8 °F 53% 29.99 in 2.5 mi Variable 4.6 mph - N/A   Haze
1:28 PM 71.6 °F 51.8 °F 50% 29.99 in 3.0 mi Variable 2.3 mph - N/A   Haze
1:58 PM 71.8 °F 50.9 °F 48% 29.97 in 3.0 mi Variable 4.6 mph - N/A   Haze
2:58 PM 73.4 °F 51.6 °F 46% 29.96 in 10.0 mi Variable 4.6 mph - N/A   Clear
3:58 PM 74.3 °F 52.2 °F 46% 29.94 in 10.0 mi East 4.6 mph - N/A   Clear
4:58 PM 73.4 °F 50.9 °F 45% 29.93 in 10.0 mi Variable 2.3 mph - N/A   Clear
5:58 PM 73.4 °F 51.8 °F 47% 29.93 in 10.0 mi East 4.6 mph - N/A   Clear
6:58 PM 68.9 °F 54.1 °F 59% 29.94 in 10.0 mi ENE 2.3 mph - N/A   Clear
7:58 PM 61.9 °F 57.6 °F 86% 29.94 in 10.0 mi ESE 4.6 mph - N/A   Clear
8:58 PM 59.4 °F 57.4 °F 93% 29.95 in 10.0 mi ESE 3.5 mph - N/A   Clear
9:58 PM 59.5 °F 54.7 °F 84% 29.95 in 10.0 mi ESE 4.6 mph - N/A   Clear
10:58 PM 57.4 °F 56.1 °F 96% 29.95 in 10.0 mi SE 5.8 mph - N/A   Clear
11:58 PM 55.4 °F 54.3 °F 96% 29.95 in 10.0 mi SE 5.8 mph - N/A   Clear